[[{"header":{"parameterUnit":"m.s-1","parameterCategory":1,"la1":30.2991,"la2":30.254,"lo1":-89.0895,"lo2":-89.0444,"dy":0.0017,"dx":0.0017,"nx":28,"ny":28,"refTime":"2025-03-19T21:00:00:Z","depth":0,"parameterNumber":2,"parameterNumberName":"U-component_of_WINDS"},"data":[0,0,0,0,0,0,0,0,0,0,0,0,0,0,0,0,0,0,0,0,0,0,0,0,0,0,0,0,0,0,0,0,0,0,0,0,0,0,0,0,0,0,0,0,0,0,0,0,0,0,0,0,0,0,0,0,0,0,5.2261,5.2262,0,5.2346,5.2347,5.2348,5.2323,5.2321,5.232,5.2318,5.2404,5.2408,5.2412,0,0,0,0,0,0,0,0,0,0,0,0,0,5.208,5.2084,5.2261,5.2262,5.2263,5.2346,5.2347,5.2348,5.2324,5.2321,5.2319,5.2317,5.2403,5.2407,5.2412,0,0,0,0,0,0,0,0,0,0,0,0,0,5.2161,5.2085,5.2261,5.2261,5.2262,5.2345,5.2347,5.2348,5.2324,5.2321,5.2319,5.2316,5.2401,5.2407,5.2413,5.2501,0,0,5.2431,5.2433,0,0,0,0,0,0,0,0,5.2157,5.2168,5.226,5.2261,5.2262,5.2321,5.2314,5.2399,5.2325,5.23,5.2318,5.2315,5.2379,5.2386,5.2408,5.2505,5.2509,5.2431,5.2435,5.2437,5.2439,0,0,0,0,0,0,0,5.2151,5.2164,5.2295,5.2261,5.2263,5.2257,5.2266,5.233,5.2353,5.2302,5.2301,5.2311,5.2379,5.2402,5.2409,5.251,5.2431,5.2436,5.244,5.2442,5.2687,5.269,0,0,0,0,0,0,5.2145,5.216,5.2292,5.2297,5.2202,5.2263,5.2272,5.2305,5.2352,5.2357,5.2313,5.231,5.2393,5.2403,5.2412,5.2521,5.2437,5.2443,5.2446,5.2684,5.2688,5.2691,0,0,0,0,0,0,5.2141,5.2157,5.2288,5.2228,5.2244,5.2269,5.2305,5.2308,5.2331,5.2361,5.2364,5.2333,5.2392,5.2404,5.248,5.2523,5.2445,5.2451,5.268,5.2685,5.2689,5.2737,0,0,0,0,0,0,5.2136,5.2155,5.2188,5.2229,5.2248,5.2354,5.2308,5.2312,5.2342,5.2338,5.238,5.2384,5.2391,5.2471,5.2486,5.253,5.2455,5.2677,5.2682,5.2688,5.2731,5.2742,5.2751,0,0,0,0,0,5.2129,5.2198,5.219,5.2206,5.229,5.2356,5.2367,5.2373,5.2345,5.2379,5.2399,5.2383,5.2516,5.2479,5.2495,5.2542,5.2674,5.2681,5.2687,5.2727,5.274,5.2751,0,0,0,0,0,0,5.2161,5.2203,5.2195,5.2278,5.2314,5.2352,5.2395,5.2386,5.243,5.2425,5.243,5.244,5.2518,5.2537,5.2495,5.2631,5.2591,5.2601,5.2615,5.2628,5.2638,5.2632,5.246,0,0,0,0,0,5.2177,5.2228,5.2262,5.2333,5.2351,5.237,5.24,5.2401,5.2438,5.2453,5.2478,5.2514,5.2565,5.2598,5.2645,5.2734,5.2744,5.2774,5.2785,5.2793,5.2802,5.2852,5.2867,5.2713,5.2713,5.2713,0,0,5.2212,5.2242,5.2273,5.234,5.2368,5.2421,5.2383,5.244,5.248,5.2462,5.2535,5.2555,5.2596,5.268,5.2718,5.2698,5.2847,5.2801,5.2808,5.2812,5.2861,5.2875,5.2888,5.2717,5.2717,5.2716,0,0,5.2303,5.233,5.2393,5.2422,5.2465,5.2478,5.2493,5.2533,5.2546,5.262,5.2609,5.2656,5.2742,5.2773,5.28,5.2906,5.2894,5.2921,5.2974,5.3024,5.3036,5.3047,5.3086,5.31,5.293,5.293,5.293,0,5.2341,5.242,5.2426,5.2485,5.2515,5.2503,5.2567,5.2595,5.2652,5.2674,5.2651,5.2761,5.2788,5.288,5.2906,5.2928,5.2946,5.2916,5.3034,5.3045,5.3055,5.3092,5.3107,5.2933,5.2933,5.2933,5.2932,0,5.2465,5.2521,5.2566,5.2622,5.2658,5.2719,5.2736,5.2771,5.2771,5.2786,5.2863,5.2896,5.2951,5.2973,5.2972,5.3065,5.3052,5.3032,5.2992,5.3072,5.3108,5.3122,5.2938,5.2937,5.2936,5.2935,0,0,5.2576,5.2637,5.2654,5.268,5.2728,5.2772,5.2834,5.2888,5.292,5.296,5.3013,5.3087,5.307,5.3101,5.3104,5.3147,5.3232,5.3122,5.3123,5.3142,5.3339,5.3354,5.337,5.3225,5.3227,5.3229,5.3336,0,5.2672,5.2781,5.2789,5.2888,5.294,5.293,5.2985,5.3021,5.3038,5.3085,5.3104,5.3157,5.3129,5.3148,5.3191,5.3212,5.3271,5.3205,5.3275,5.3277,5.3265,5.3389,5.3404,5.3503,5.3349,5.3352,5.3353,0,5.2797,5.2843,5.2947,5.2991,5.3013,5.3061,5.3114,5.3159,5.3201,5.321,5.3246,5.3244,5.3309,5.3267,5.3358,5.3312,5.3342,5.3357,5.3361,5.3368,5.332,5.34,5.3534,5.3549,5.3375,5.3373,5.3372,0,5.287,5.2957,5.3031,5.3054,5.3106,5.3141,5.3164,5.3203,5.3237,5.3283,5.3305,5.3358,5.3387,5.3428,5.3441,5.3409,5.3532,5.349,5.3543,5.3542,5.3568,5.3567,5.371,5.3587,5.3587,5.3586,5.3586,0,5.2976,5.304,5.3065,5.311,5.3183,5.3193,5.3264,5.3286,5.3321,5.3372,5.3367,5.3414,5.3428,5.3479,5.3489,5.3564,5.3577,5.3587,5.3589,5.3588,5.3587,5.3607,5.3601,5.359,5.3589,5.3589,5.3588,0,5.3069,5.3087,5.3168,5.3212,5.3224,5.3276,5.3314,5.3358,5.3375,5.344,5.3455,5.3482,5.3542,5.3559,5.363,5.3637,5.3725,5.3721,5.3711,5.3711,5.3763,5.3758,5.3925,5.3948,5.3809,5.381,5.3811,0,5.3135,5.3185,5.3235,5.3269,5.3294,5.3348,5.3383,5.3395,5.3431,5.3484,5.3523,5.3582,5.363,5.3726,5.3752,5.3807,5.3804,5.3859,5.3812,5.381,5.3807,5.3804,5.381,5.3868,5.3869,5.387,5.3871,0,5.3252,5.326,5.331,5.3365,5.3406,5.345,5.3491,5.3519,5.3538,5.358,5.3641,5.3678,5.3752,5.3811,5.3868,5.3892,5.3886,5.3886,5.3901,5.39,5.3894,5.3899,5.3736,5.3882,5.3881,5.388,5.388,5.3879,5.3335,5.338,5.3422,5.3479,5.3512,5.3552,5.3597,5.362,5.3672,5.3733,5.3738,5.3804,5.3847,5.3923,5.3951,5.4004,5.3988,5.4009,5.4015,5.402,5.4025,5.3885,5.4014,5.4014,5.4014,5.4013,5.4013,0,5.3453,5.3481,5.3533,5.3592,5.3637,5.3628,5.3674,5.3713,5.3772,5.3813,5.3861,5.3932,5.399,5.4022,5.4081,5.4117,5.4116,5.4132,5.413,5.4136,5.4036,5.4017,5.4133,5.4133,5.4132,5.4132,5.4132,5.4132,5.352,5.3595,5.3608,5.3701,5.3728,5.3794,5.3822,5.3859,5.3892,5.3972,5.4021,5.4041,5.4079,5.4141,5.4195,5.4203,5.4225,5.4243,5.425,5.4155,5.4143,5.4131,5.4114,5.4248,5.4248,5.4346,5.4347,5.4347]},{"header":{"parameterUnit":"m.s-1","parameterCategory":1,"la1":30.2991,"la2":30.254,"lo1":-89.0895,"lo2":-89.0444,"dy":0.0017,"dx":0.0017,"nx":28,"ny":28,"refTime":"2025-03-19T21:00:00:Z","depth":0,"parameterNumber":3,"parameterNumberName":"V-component_of_WINDS"},"data":[0,0,0,0,0,0,0,0,0,0,0,0,0,0,0,0,0,0,0,0,0,0,0,0,0,0,0,0,0,0,0,0,0,0,0,0,0,0,0,0,0,0,0,0,0,0,0,0,0,0,0,0,0,0,0,0,0,0,-6.5929,-6.593,0,-6.6034,-6.6035,-6.6036,-6.6031,-6.603,-6.6028,-6.6027,-6.6129,-6.6133,-6.6137,0,0,0,0,0,0,0,0,0,0,0,0,0,-6.5723,-6.5727,-6.5929,-6.593,-6.5932,-6.6033,-6.6035,-6.6036,-6.6031,-6.6029,-6.6028,-6.6026,-6.6127,-6.6132,-6.6137,0,0,0,0,0,0,0,0,0,0,0,0,0,-6.5819,-6.5728,-6.5929,-6.5942,-6.5944,-6.6033,-6.6035,-6.6037,-6.6032,-6.6029,-6.6027,-6.6025,-6.6126,-6.6132,-6.6138,-6.6219,0,0,-6.6156,-6.6159,0,0,0,0,0,0,0,0,-6.5813,-6.5826,-6.5938,-6.5941,-6.5944,-6.6017,-6.6,-6.6098,-6.6032,-6.5998,-6.6027,-6.6024,-6.6093,-6.6102,-6.6126,-6.6224,-6.6229,-6.6157,-6.6161,-6.6163,-6.6165,0,0,0,0,0,0,0,-6.5807,-6.5822,-6.597,-6.594,-6.5943,-6.5941,-6.5953,-6.6018,-6.6056,-6.6001,-6.6001,-6.6014,-6.6094,-6.612,-6.6128,-6.623,-6.6157,-6.6162,-6.6166,-6.6168,-6.6404,-6.6406,0,0,0,0,0,0,-6.5798,-6.5816,-6.5967,-6.5973,-6.5872,-6.5947,-6.5959,-6.5996,-6.6056,-6.6063,-6.6015,-6.6013,-6.6111,-6.6121,-6.6132,-6.6233,-6.6163,-6.6169,-6.6172,-6.6401,-6.6404,-6.6407,0,0,0,0,0,0,-6.5793,-6.5811,-6.5963,-6.5895,-6.5914,-6.5953,-6.5994,-6.5999,-6.6025,-6.6067,-6.6073,-6.6035,-6.6109,-6.6123,-6.6199,-6.6237,-6.6172,-6.6177,-6.6398,-6.6402,-6.6406,-6.6436,0,0,0,0,0,0,-6.5787,-6.581,-6.5841,-6.5896,-6.5918,-6.6029,-6.5996,-6.6002,-6.6036,-6.6034,-6.6087,-6.6094,-6.6109,-6.619,-6.6205,-6.6244,-6.6182,-6.6395,-6.64,-6.6404,-6.6432,-6.644,-6.6448,0,0,0,0,0,-6.578,-6.5844,-6.5843,-6.5861,-6.5959,-6.6031,-6.6043,-6.6061,-6.6039,-6.6071,-6.6099,-6.6092,-6.623,-6.6197,-6.6214,-6.6256,-6.6392,-6.6398,-6.6404,-6.6428,-6.6438,-6.6447,0,0,0,0,0,0,-6.5791,-6.5851,-6.5851,-6.5934,-6.5978,-6.603,-6.6071,-6.6071,-6.612,-6.6116,-6.6134,-6.6146,-6.6222,-6.6246,-6.6209,-6.634,-6.6308,-6.6318,-6.6321,-6.6331,-6.6339,-6.6331,-6.6187,0,0,0,0,0,-6.5803,-6.5858,-6.5908,-6.5977,-6.5999,-6.6031,-6.6063,-6.6074,-6.6118,-6.6136,-6.6169,-6.6211,-6.6265,-6.6299,-6.635,-6.6435,-6.6447,-6.6473,-6.6481,-6.6487,-6.6495,-6.6544,-6.6556,-6.6426,-6.6426,-6.6426,0,0,-6.5829,-6.5869,-6.5902,-6.598,-6.6015,-6.6071,-6.6046,-6.6106,-6.6148,-6.6144,-6.6219,-6.6245,-6.6293,-6.6375,-6.6412,-6.6397,-6.6534,-6.6494,-6.6499,-6.6504,-6.6551,-6.6563,-6.6574,-6.643,-6.6429,-6.6429,0,0,-6.5904,-6.594,-6.6002,-6.6039,-6.6093,-6.6115,-6.613,-6.6183,-6.6201,-6.6276,-6.6276,-6.6325,-6.6416,-6.6452,-6.6482,-6.6575,-6.6571,-6.6591,-6.6632,-6.668,-6.669,-6.6699,-6.6733,-6.6745,-6.6598,-6.6598,-6.6599,0,-6.5928,-6.6014,-6.6034,-6.6095,-6.613,-6.6133,-6.6197,-6.623,-6.6297,-6.6321,-6.6304,-6.6421,-6.6454,-6.6545,-6.6568,-6.6592,-6.661,-6.6584,-6.6687,-6.6696,-6.6705,-6.6738,-6.6751,-6.6601,-6.66,-6.66,-6.66,0,-6.6042,-6.6101,-6.6145,-6.6214,-6.6253,-6.6315,-6.6344,-6.6382,-6.639,-6.6413,-6.6491,-6.6531,-6.6592,-6.6614,-6.6621,-6.6707,-6.6696,-6.6683,-6.6652,-6.6719,-6.6751,-6.6763,-6.6604,-6.6603,-6.6602,-6.6602,0,0,-6.6124,-6.6206,-6.6221,-6.6254,-6.6315,-6.6361,-6.6424,-6.6485,-6.6518,-6.6565,-6.6618,-6.6697,-6.6686,-6.6721,-6.6732,-6.6773,-6.6846,-6.6755,-6.6757,-6.6771,-6.6945,-6.6955,-6.6969,-6.6844,-6.6847,-6.6849,-6.6941,0,-6.6207,-6.632,-6.6341,-6.6439,-6.6495,-6.65,-6.6555,-6.6599,-6.6623,-6.6674,-6.67,-6.6756,-6.6737,-6.6758,-6.68,-6.6828,-6.6881,-6.6822,-6.6894,-6.6896,-6.6882,-6.6985,-6.6995,-6.708,-6.6953,-6.6955,-6.6957,0,-6.6317,-6.6371,-6.6475,-6.6532,-6.6556,-6.6605,-6.6665,-6.6713,-6.6763,-6.6778,-6.6818,-6.6825,-6.6891,-6.6858,-6.6948,-6.6908,-6.6939,-6.6958,-6.6961,-6.6968,-6.693,-6.6995,-6.7107,-6.712,-6.6976,-6.6975,-6.6973,0,-6.6369,-6.6466,-6.6542,-6.6569,-6.6637,-6.6671,-6.6701,-6.6749,-6.6786,-6.6837,-6.6862,-6.6919,-6.6951,-6.6996,-6.7018,-6.6992,-6.7108,-6.7076,-6.7122,-6.7122,-6.7146,-6.7144,-6.7265,-6.7165,-6.7165,-6.7165,-6.7165,0,-6.6459,-6.6522,-6.6566,-6.6613,-6.6685,-6.6709,-6.678,-6.6809,-6.6852,-6.6904,-6.6911,-6.696,-6.6987,-6.7039,-6.7057,-6.7131,-6.7145,-6.7158,-6.7162,-6.7158,-6.7156,-6.7178,-6.7173,-6.7168,-6.7168,-6.7167,-6.7166,0,-6.6527,-6.6559,-6.6643,-6.6701,-6.6718,-6.6768,-6.6818,-6.6864,-6.6889,-6.6955,-6.6972,-6.7012,-6.7074,-6.7102,-6.7178,-6.7191,-6.7275,-6.7274,-6.7258,-6.726,-6.7305,-6.73,-6.7444,-6.7464,-6.7351,-6.7352,-6.7353,0,-6.6583,-6.6632,-6.6698,-6.6735,-6.6766,-6.6824,-6.6863,-6.6889,-6.6928,-6.6991,-6.7029,-6.7093,-6.7145,-6.7244,-6.7279,-6.7338,-6.734,-6.7386,-6.7348,-6.7343,-6.7341,-6.7338,-6.7344,-6.7392,-6.7393,-6.7394,-6.7395,0,-6.6678,-6.6692,-6.6748,-6.6811,-6.6857,-6.6907,-6.6956,-6.6985,-6.7019,-6.7063,-6.7129,-6.7169,-6.7249,-6.7312,-6.7374,-6.7404,-6.7406,-6.7407,-6.7421,-6.7417,-6.7406,-6.7414,-6.7278,-6.7403,-6.7403,-6.7402,-6.7402,-6.7401,-6.6742,-6.6788,-6.6842,-6.6905,-6.6945,-6.6991,-6.7038,-6.7071,-6.7126,-6.7195,-6.7207,-6.7277,-6.7327,-6.7411,-6.7444,-6.7498,-6.7487,-6.7507,-6.7512,-6.7516,-6.752,-6.7398,-6.751,-6.7509,-6.7509,-6.7509,-6.7509,0,-6.6838,-6.6874,-6.6932,-6.7002,-6.7052,-6.7052,-6.7106,-6.7148,-6.721,-6.7258,-6.7311,-6.7387,-6.7449,-6.749,-6.7553,-6.7589,-6.7592,-6.7605,-6.7602,-6.7609,-6.7526,-6.7508,-6.7602,-6.7602,-6.7602,-6.7602,-6.7602,-6.7602,-6.6894,-6.6972,-6.6993,-6.7092,-6.7127,-6.7197,-6.7229,-6.7272,-6.7311,-6.7396,-6.7449,-6.7476,-6.7522,-6.7589,-6.7646,-6.7657,-6.7679,-6.7693,-6.7703,-6.7624,-6.7615,-6.7605,-6.7589,-6.7698,-6.7698,-6.7782,-6.7783,-6.7784]}]]